| time (UTC) | temp F | wind direction | speed MPH | gust MPH | rain 1hr in | rain 24hr in | rain mn in | humidity % | barometer mb |
| 20260904111316 | 69 | 0.0 | 0.0 | 0.01 | 0.02 | 0.02 | 78 | 1019.3 | |
| 20260904110316 | 70 | 0.0 | 0.0 | 0.01 | 0.02 | 0.02 | 75 | 1019.6 | |
| 20260904105316 | 70 | 0.0 | 0.0 | 0.00 | 0.01 | 0.01 | 72 | 1019.4 | |
| 20260904104316 | 69 | 0.0 | 0.0 | 0.00 | 0.01 | 0.01 | 72 | 1019.2 | |
| 20260904103316 | 69 | 0.0 | 0.0 | 0.00 | 0.01 | 0.01 | 73 | 1018.9 | |
| 20260904102316 | 69 | 0.0 | 0.0 | 0.00 | 0.01 | 0.01 | 74 | 1019.0 | |
| 20260904101316 | 70 | 0.0 | 0.0 | 0.00 | 0.01 | 0.01 | 74 | 1019.5 | |
| 20260904100316 | 70 | 0.0 | 0.0 | 0.00 | 0.01 | 0.01 | 70 | 1019.3 | |
| 20260904095316 | 70 | 0.0 | 0.0 | 0.00 | 0.01 | 0.01 | 68 | 1019.1 | |
| 20260904094316 | 71 | 0.0 | 0.0 | 0.00 | 0.01 | 0.01 | 68 | 1018.9 | |
| 20260904093336 | 71 | 0.0 | 1.0 | 0.00 | 0.01 | 0.01 | 69 | 1019.2 | |
| 20260904092316 | 71 | 0.0 | 0.0 | 0.00 | 0.01 | 0.01 | 69 | 1019.3 | |
| 20260904091316 | 71 | 0.0 | 0.0 | 0.00 | 0.01 | 0.01 | 69 | 1019.3 | |
| 20260904090316 | 71 | 0.0 | 0.0 | 0.00 | 0.01 | 0.01 | 69 | 1019.3 | |
| 20260904085316 | 71 | 0.0 | 0.0 | 0.00 | 0.01 | 0.01 | 69 | 1019.4 | |
| 20260904084316 | 71 | 0.0 | 0.0 | 0.00 | 0.01 | 0.01 | 68 | 1019.1 | |
| 20260904083316 | 71 | 0.0 | 0.0 | 0.00 | 0.01 | 0.01 | 69 | 1018.8 | |
| 20260904082316 | 71 | 0.0 | 0.0 | 0.00 | 0.01 | 0.01 | 71 | 1018.8 | |
| 20260904081336 | 70 | 0.0 | 0.0 | 0.00 | 0.01 | 0.01 | 73 | 1018.6 | |
| 20260904080316 | 70 | 0.0 | 0.0 | 0.01 | 0.01 | 0.01 | 74 | 1018.6 | |
| 20260904075316 | 70 | 0.0 | 0.0 | 0.01 | 0.01 | 0.01 | 76 | 1018.8 | |
| 20260904074316 | 70 | 0.0 | 0.0 | 0.01 | 0.01 | 0.01 | 75 | 1018.8 | |
| 20260904073316 | 70 | 0.0 | 3.0 | 0.01 | 0.01 | 0.01 | 76 | 1019.1 | |
| 20260904072316 | 71 | 0.0 | 0.0 | 0.01 | 0.01 | 0.01 | 74 | 1019.1 | |
| 20260904071316 | 73 | 0.0 | 0.0 | 0.01 | 0.01 | 0.01 | 70 | 1019.6 | |
| 20260904070316 | 75 | 0.0 | 0.0 | 0.00 | 0.00 | 0.00 | 63 | 1019.7 | |
| 20260904065316 | 76 | 225 | 1.0 | 3.0 | 0.00 | 0.00 | 0.00 | 59 | 1019.6 |
| 20260904064316 | 77 | 225 | 5.0 | 8.0 | 0.00 | 0.00 | 0.00 | 61 | 1019.5 |
| 20260904063316 | 77 | 225 | 6.0 | 11.0 | 0.00 | 0.00 | 0.00 | 59 | 1019.3 |
| 20260904062316 | 78 | 203 | 8.0 | 12.0 | 0.00 | 0.00 | 0.00 | 57 | 1019.2 |
| 20260904061316 | 79 | 180 | 6.0 | 10.0 | 0.00 | 0.00 | 0.00 | 54 | 1019.3 |
| 20260904060316 | 80 | 225 | 3.0 | 4.0 | 0.00 | 0.00 | 0.00 | 52 | 1018.9 |
| 20260904055316 | 80 | 0.0 | 0.0 | 0.00 | 0.00 | 0.00 | 50 | 1018.7 | |
| 20260904054316 | 81 | 293 | 3.0 | 6.0 | 0.00 | 0.00 | 0.00 | 49 | 1018.7 |
| 20260904053336 | 82 | 0.0 | 0.0 | 0.00 | 0.00 | 0.00 | 45 | 1018.0 | |
| 20260904052316 | 82 | 0.0 | 3.0 | 0.00 | 0.00 | 0.00 | 43 | 1018.1 | |
| 20260904051336 | 83 | 225 | 1.0 | 4.0 | 0.00 | 0.00 | 0.00 | 42 | 1017.9 |
| 20260904050316 | 82 | 0.0 | 2.0 | 0.00 | 0.00 | 0.00 | 41 | 1017.6 | |
| 20260904045316 | 83 | 0.0 | 0.0 | 0.00 | 0.00 | 0.00 | 40 | 1017.2 | |
| 20260904044336 | 83 | 0.0 | 0.0 | 0.00 | 0.00 | 0.00 | 39 | 1017.0 | |
| 20260904043316 | 83 | 0.0 | 0.0 | 0.00 | 0.00 | 0.00 | 39 | 1017.3 | |
| 20260904042316 | 84 | 0.0 | 0.0 | 0.00 | 0.00 | 0.00 | 39 | 1017.2 | |
| 20260904041336 | 84 | 0.0 | 0.0 | 0.00 | 0.00 | 0.00 | 38 | 1016.9 | |
| 20260904040316 | 84 | 0.0 | 0.0 | 0.00 | 0.00 | 0.00 | 38 | 1016.6 | |
| 20260904035336 | 84 | 0.0 | 0.0 | 0.00 | 0.00 | 0.00 | 39 | 1016.6 | |
| 20260904034316 | 84 | 0.0 | 0.0 | 0.00 | 0.00 | 0.00 | 37 | 1016.5 | |
| 20260904033316 | 84 | 0.0 | 0.0 | 0.00 | 0.00 | 0.00 | 38 | 1016.2 | |
| 20260904032316 | 85 | 0.0 | 0.0 | 0.00 | 0.00 | 0.00 | 37 | 1016.4 | |
| 20260904031316 | 85 | 0.0 | 0.0 | 0.00 | 0.00 | 0.00 | 37 | 1016.3 | |
| 20260904030316 | 85 | 0.0 | 0.0 | 0.00 | 0.00 | 0.00 | 37 | 1015.7 | |
| 20260904025316 | 86 | 0.0 | 0.0 | 0.00 | 0.00 | 0.00 | 36 | 1015.4 | |
| 20260904024316 | 86 | 0.0 | 0.0 | 0.00 | 0.00 | 0.00 | 36 | 1015.5 | |
| 20260904023316 | 87 | 0.0 | 0.0 | 0.00 | 0.00 | 0.00 | 35 | 1015.1 | |
| 20260904022316 | 87 | 0.0 | 0.0 | 0.00 | 0.00 | 0.00 | 34 | 1015.3 | |
| 20260904021316 | 87 | 0.0 | 0.0 | 0.00 | 0.00 | 0.00 | 34 | 1015.2 | |
| 20260904020316 | 87 | 293 | 1.0 | 3.0 | 0.00 | 0.00 | 0.00 | 33 | 1014.7 |
| 20260904015316 | 88 | 0.0 | 0.0 | 0.00 | 0.00 | 0.00 | 32 | 1014.4 | |
| 20260904014316 | 88 | 0.0 | 0.0 | 0.00 | 0.00 | 0.00 | 32 | 1014.7 | |
| 20260904013336 | 89 | 0.0 | 0.0 | 0.00 | 0.00 | 0.00 | 31 | 1014.7 | |
| 20260904012316 | 89 | 0.0 | 0.0 | 0.00 | 0.00 | 0.00 | 31 | 1014.7 | |
| 20260904011336 | 90 | 0.0 | 0.0 | 0.00 | 0.00 | 0.00 | 30 | 1014.7 | |
| 20260904010316 | 91 | 248 | 1.0 | 4.0 | 0.00 | 0.00 | 0.00 | 29 | 1015.0 |
| 20260904005316 | 92 | 225 | 3.0 | 6.0 | 0.00 | 0.00 | 0.00 | 29 | 1014.7 |
| 20260904004316 | 92 | 0.0 | 0.0 | 0.00 | 0.00 | 0.00 | 29 | 1014.7 | |
| 20260904003316 | 92 | 0.0 | 1.0 | 0.00 | 0.00 | 0.00 | 29 | 1014.7 | |
| 20260904002316 | 93 | 225 | 3.0 | 4.0 | 0.00 | 0.00 | 0.00 | 28 | 1014.9 |
| 20260904001316 | 93 | 0.0 | 1.0 | 0.00 | 0.00 | 0.00 | 29 | 1015.0 | |
| 20260904000318 | 93 | 315 | 5.0 | 7.0 | 0.00 | 0.00 | 0.00 | 28 | 1014.9 |
| 20260903235316 | 94 | 0.0 | 0.0 | 0.00 | 0.00 | 0.00 | 28 | 1014.9 | |
| 20260903234316 | 93 | 225 | 1.0 | 3.0 | 0.00 | 0.00 | 0.00 | 28 | 1015.0 |
| 20260903233316 | 93 | 225 | 7.0 | 10.0 | 0.00 | 0.00 | 0.00 | 29 | 1015.0 |
| 20260903232336 | 93 | 203 | 1.0 | 3.0 | 0.00 | 0.00 | 0.00 | 29 | 1014.6 |
| 20260903231316 | 93 | 315 | 1.0 | 3.0 | 0.00 | 0.00 | 0.00 | 29 | 1014.9 |
| 20260903230316 | 93 | 203 | 2.0 | 4.0 | 0.00 | 0.00 | 0.00 | 28 | 1014.9 |
| 20260903225316 | 94 | 248 | 1.0 | 4.0 | 0.00 | 0.00 | 0.00 | 28 | 1014.9 |
| 20260903224316 | 93 | 0.0 | 2.0 | 0.00 | 0.00 | 0.00 | 29 | 1015.0 | |
| 20260903223316 | 94 | 293 | 2.0 | 7.0 | 0.00 | 0.00 | 0.00 | 29 | 1015.3 |
| 20260903222316 | 93 | 0.0 | 0.0 | 0.00 | 0.00 | 0.00 | 30 | 1015.2 | |
| 20260903221316 | 93 | 293 | 4.0 | 6.0 | 0.00 | 0.00 | 0.00 | 29 | 1015.1 |
| 20260903220316 | 93 | 293 | 4.0 | 7.0 | 0.00 | 0.00 | 0.00 | 29 | 1015.5 |
| 20260903215316 | 92 | 315 | 5.0 | 7.0 | 0.00 | 0.00 | 0.00 | 31 | 1015.3 |
| 20260903214316 | 92 | 293 | 5.0 | 7.0 | 0.00 | 0.00 | 0.00 | 31 | 1015.6 |
| 20260903213316 | 93 | 203 | 4.0 | 9.0 | 0.00 | 0.00 | 0.00 | 30 | 1015.9 |
| 20260903212336 | 94 | 315 | 3.0 | 5.0 | 0.00 | 0.00 | 0.00 | 29 | 1016.0 |
| 20260903211336 | 92 | 315 | 4.0 | 6.0 | 0.00 | 0.00 | 0.00 | 31 | 1016.0 |
| 20260903210316 | 93 | 293 | 2.0 | 7.0 | 0.00 | 0.00 | 0.00 | 30 | 1016.4 |
| 20260903205356 | 93 | 293 | 2.0 | 4.0 | 0.00 | 0.00 | 0.00 | 30 | 1016.6 |
| 20260903204316 | 93 | 270 | 3.0 | 6.0 | 0.00 | 0.00 | 0.00 | 30 | 1016.8 |
| 20260903203316 | 93 | 225 | 5.0 | 9.0 | 0.00 | 0.00 | 0.00 | 31 | 1016.9 |
| 20260903202356 | 92 | 0.0 | 0.0 | 0.00 | 0.00 | 0.00 | 31 | 1017.0 | |
| 20260903201316 | 92 | 293 | 1.0 | 3.0 | 0.00 | 0.00 | 0.00 | 32 | 1017.2 |
| 20260903200316 | 91 | 135 | 2.0 | 4.0 | 0.00 | 0.00 | 0.00 | 32 | 1017.4 |
| 20260903195316 | 91 | 315 | 1.0 | 5.0 | 0.00 | 0.00 | 0.00 | 32 | 1017.5 |
| 20260903194316 | 90 | 293 | 3.0 | 7.0 | 0.00 | 0.00 | 0.00 | 32 | 1017.8 |
| 20260903193316 | 89 | 293 | 4.0 | 5.0 | 0.00 | 0.00 | 0.00 | 34 | 1018.3 |
| 20260903192316 | 88 | 315 | 4.0 | 5.0 | 0.00 | 0.00 | 0.00 | 35 | 1018.2 |
| 20260903191316 | 88 | 315 | 1.0 | 4.0 | 0.00 | 0.00 | 0.00 | 35 | 1018.3 |
| 20260903190316 | 89 | 293 | 3.0 | 6.0 | 0.00 | 0.00 | 0.00 | 35 | 1018.8 |
| 20260903185316 | 88 | 270 | 3.0 | 5.0 | 0.00 | 0.00 | 0.00 | 35 | 1018.9 |
| 20260903184316 | 89 | 270 | 1.0 | 4.0 | 0.00 | 0.00 | 0.00 | 35 | 1019.2 |
| 20260903183316 | 88 | 315 | 5.0 | 9.0 | 0.00 | 0.00 | 0.00 | 37 | 1019.5 |
| 20260903182316 | 88 | 315 | 1.0 | 6.0 | 0.00 | 0.00 | 0.00 | 38 | 1019.6 |
| 20260903181336 | 87 | 293 | 3.0 | 6.0 | 0.00 | 0.00 | 0.00 | 39 | 1019.8 |
| 20260903180316 | 87 | 293 | 2.0 | 3.0 | 0.00 | 0.00 | 0.00 | 39 | 1020.0 |
| 20260903175316 | 87 | 293 | 3.0 | 6.0 | 0.00 | 0.00 | 0.00 | 39 | 1020.1 |
| 20260903174316 | 86 | 315 | 4.0 | 7.0 | 0.00 | 0.00 | 0.00 | 39 | 1020.1 |
| 20260903173316 | 86 | 293 | 2.0 | 4.0 | 0.00 | 0.00 | 0.00 | 40 | 1020.4 |
| 20260903172316 | 85 | 0.0 | 0.0 | 0.00 | 0.00 | 0.00 | 42 | 1020.2 | |
| 20260903171316 | 84 | 315 | 2.0 | 3.0 | 0.00 | 0.00 | 0.00 | 43 | 1020.2 |
| 20260903170316 | 84 | 0 | 4.0 | 7.0 | 0.00 | 0.00 | 0.00 | 43 | 1020.2 |
| 20260903165316 | 83 | 270 | 2.0 | 4.0 | 0.00 | 0.00 | 0.00 | 45 | 1020.0 |
| 20260903164316 | 83 | 293 | 4.0 | 6.0 | 0.00 | 0.00 | 0.00 | 45 | 1019.9 |
| 20260903163316 | 82 | 293 | 2.0 | 4.0 | 0.00 | 0.00 | 0.00 | 46 | 1019.9 |
| 20260903162316 | 82 | 315 | 4.0 | 6.0 | 0.00 | 0.00 | 0.00 | 46 | 1019.8 |
| 20260903161316 | 82 | 315 | 5.0 | 8.0 | 0.00 | 0.00 | 0.00 | 45 | 1019.9 |
| 20260903160316 | 83 | 0 | 4.0 | 8.0 | 0.00 | 0.00 | 0.00 | 44 | 1020.1 |
| 20260903155316 | 83 | 23 | 3.0 | 5.0 | 0.00 | 0.00 | 0.00 | 45 | 1020.1 |
| 20260903154316 | 82 | 315 | 3.0 | 4.0 | 0.00 | 0.00 | 0.00 | 46 | 1020.2 |
| 20260903153316 | 82 | 293 | 4.0 | 7.0 | 0.00 | 0.00 | 0.00 | 46 | 1020.1 |
| 20260903152316 | 81 | 338 | 4.0 | 6.0 | 0.00 | 0.00 | 0.00 | 48 | 1019.9 |
| 20260903151316 | 80 | 23 | 3.0 | 4.0 | 0.00 | 0.00 | 0.00 | 50 | 1020.0 |
| 20260903150316 | 79 | 0.0 | 2.0 | 0.00 | 0.00 | 0.00 | 51 | 1019.8 | |
| 20260903145336 | 77 | 45 | 4.0 | 7.0 | 0.00 | 0.00 | 0.00 | 53 | 1019.7 |
| 20260903144316 | 76 | 0.0 | 0.0 | 0.00 | 0.00 | 0.00 | 55 | 1019.5 | |
| 20260903143316 | 76 | 338 | 2.0 | 3.0 | 0.00 | 0.00 | 0.00 | 55 | 1019.7 |
| 20260903142316 | 76 | 0.0 | 0.0 | 0.00 | 0.00 | 0.00 | 56 | 1019.6 | |
| 20260903141316 | 75 | 338 | 1.0 | 4.0 | 0.00 | 0.00 | 0.00 | 56 | 1019.7 |
| 20260903140316 | 75 | 293 | 2.0 | 4.0 | 0.00 | 0.00 | 0.00 | 56 | 1019.8 |
| 20260903135316 | 75 | 0.0 | 0.0 | 0.00 | 0.00 | 0.00 | 56 | 1019.9 | |
| 20260903134315 | 75 | 0.0 | 0.0 | 0.00 | 0.00 | 0.00 | 56 | 1019.7 | |
| 20260903133316 | 74 | 0.0 | 0.0 | 0.00 | 0.00 | 0.00 | 57 | 1019.8 | |
| 20260903132315 | 74 | 0.0 | 0.0 | 0.00 | 0.00 | 0.00 | 56 | 1020.0 | |
| 20260903131316 | 74 | 315 | 1.0 | 3.0 | 0.00 | 0.00 | 0.00 | 57 | 1020.1 |
| 20260903130316 | 73 | 0.0 | 0.0 | 0.00 | 0.00 | 0.00 | 57 | 1019.6 | |
| 20260903125316 | 73 | 0.0 | 0.0 | 0.00 | 0.00 | 0.00 | 58 | 1019.9 | |
| 20260903124335 | 73 | 0.0 | 0.0 | 0.00 | 0.00 | 0.00 | 58 | 1019.8 | |
| 20260903123316 | 73 | 0.0 | 0.0 | 0.00 | 0.00 | 0.00 | 58 | 1019.8 | |
| 20260903122316 | 73 | 0.0 | 0.0 | 0.00 | 0.00 | 0.00 | 57 | 1019.8 | |
| 20260903121316 | 73 | 0.0 | 0.0 | 0.00 | 0.00 | 0.00 | 58 | 1019.9 | |
| 20260903120316 | 73 | 225 | 4.0 | 9.0 | 0.00 | 0.00 | 0.00 | 57 | 1019.8 |
| 20260903115316 | 73 | 225 | 1.0 | 2.0 | 0.00 | 0.00 | 0.00 | 58 | 1019.7 |
| 20260903114336 | 73 | 158 | 3.0 | 4.0 | 0.00 | 0.00 | 0.00 | 58 | 1019.6 |
| 20260903113316 | 73 | 0.0 | 0.0 | 0.00 | 0.00 | 0.00 | 59 | 1019.3 | |
| 20260903112356 | 73 | 0.0 | 0.0 | 0.00 | 0.00 | 0.00 | 58 | 1019.4 |